Location: Milevsko
(49.4500°N, 14.3670°E)
Time: 20:40:33
(UTC+02:00)

ISS - Pass Details

Date: 19 July 2018
Orbit: 402 x 408 km, 51.6° (Epoch: 17 July)

Event Time Altitude Azimuth Distance (km) Brightness Sun altitude
Rises 23:01:11 0° 230° (SW) 2,312 -0.1 -14.3°
Reaches altitude 10° 23:03:18 10° 223° (SW) 1,457 -1.2 -14.5°
Maximum altitude 23:06:25 43° 150° (SSE) 582 -3.5 -14.7°
Drops below altitude 10° 23:09:34 10° 78° (ENE) 1,467 -1.2 -15.0°
Sets 23:11:42 0° 71° (ENE) 2,331 -0.1 -15.1°
